Regional Weather Roundup
Issued by NWS

Home | Current Version | Previous Version | Text Only | Print | Product List | Glossary Off
Versions: 1 2 3 4 5 6 7 8 9 10 11 12 13 14 15 16 17 18 19 20 21 22 23 24 25 26 27 28 29 30 31 32 33 34 35 36 37 38 39 40 41 42 43 44 45 46 47 48 49 50

000
ASUS43 KMKX 242013
RWRWI

WISCONSIN REGIONAL WEATHER ROUNDUP
NATIONAL WEATHER SERVICE MILWAUKEE/SULLIVAN WI
300 PM CDT SUN MAY 24 2015

NOTE: "FAIR" INDICATES FEW OR NO CLOUDS BELOW 12,000 FEET WITH NO
SIGNIFICANT WEATHER AND/OR OBSTRUCTIONS TO VISIBILITY.

WIZ001-002-006>008-014>016-023>028-242100-
NORTHWEST WISCONSIN

CITY           SKY/WX    TMP DP  RH WIND       PRES   REMARKS
SUPERIOR ARPT  CLOUDY    66  44  43 NE7       30.00F
ASHLAND        CLOUDY    73  50  44 NE12      30.01F
HAYWARD        LGT RAIN  70  50  49 S13       30.02S
SIREN          LGT RAIN  66  55  66 SE5       30.01F
CUMBERLAND     RAIN      61  54  77 SE9       30.03S
RICE LAKE      LGT RAIN  62  56  82 SE9       30.05S
CHETEK         RAIN      61  58  89 E7        30.04F
LADYSMITH      LGT RAIN  64  56  76 SE12      30.07S
EAU CLAIRE     LGT RAIN  60  56  86 E14G22    30.01F
MENOMONIE      RAIN      61  58  92 E12       30.01F
NEW RICHMOND   LGT RAIN  60  58  95 E9        30.00F
OSCEOLA        LGT RAIN  62  58  87 SE8       30.03F
$$

WIZ003>005-009-010-017-018-242100-
NORTH CENTRAL WISCONSIN

CITY           SKY/WX    TMP DP  RH WIND       PRES   REMARKS
MANITOWISH WTR CLOUDY    73  49  43 S8        30.04F
ARBOR VITAE    CLOUDY    72  47  40 S9        30.04F
WOODRUFF       CLOUDY    72  47  40 S9        30.04F
RHINELANDER    CLOUDY    68  52  56 SW10G22   30.08S
EAGLE RIVER    CLOUDY    73  42  33 S9        30.05F
LAND O LAKES   CLOUDY    76  43  31 S6        30.05F
PHILLIPS       CLOUDY    66  52  61 S13       30.05S
TOMAHAWK       LGT RAIN  63  54  72 S5        30.09S
MEDFORD        RAIN      58  55  90 SE7       30.08S
MERRILL        LGT RAIN  61  58  88 SE5       30.09F
$$

WIZ029-030-035-036-043>047-242100-
CENTRAL WISCONSIN

CITY           SKY/WX    TMP DP  RH WIND       PRES   REMARKS
WAUSAU         LGT RAIN  59  55  87 SE9       30.07F
MOSINEE        LGT RAIN  57  57 100 SE9       30.10F
MARSHFIELD     LGT RAIN  60  55  83 SE14      30.05F
STEVENS POINT  LGT RAIN  57  55  90 SE8       30.10S
WAUPACA        LGT RAIN  62  59  89 E7        30.10F
WAUTOMA        LGT RAIN  61  61 100 E8        30.08F FOG
WISC RAPIDS    LGT RAIN  60  56  86 SE7       30.06F
CAMP DOUGLAS   LGT RAIN  57  57 100 E12       30.02F FOG
$$

WIZ011>013-019>022-031-037>040-048>050-242100-
NORTHEAST WISCONSIN

CITY           SKY/WX    TMP DP  RH WIND       PRES   REMARKS
ANTIGO         DRIZZLE   61  55  82 S10       30.10F
SHAWANO        LGT RAIN  66  55  66 S8        30.11F
OCONTO         CLOUDY    65  56  71 S6        30.10F
STURGEON BAY   CLOUDY    66  50  55 S13G18    30.13F
GREEN BAY      LGT RAIN  63  58  83 S10       30.12F
MANITOWOC      NOT AVBL
APPLETON       LGT RAIN  61  57  88 SE6       30.11F
CLINTONVILLE   LGT RAIN  61  55  82 S6        30.10F
OSHKOSH        LGT RAIN  61  57  87 E8        30.08F
$$

WIZ032>034-041-042-053>061-242100-
SOUTHWEST WISCONSIN

CITY           SKY/WX    TMP DP  RH WIND       PRES   REMARKS
LA CROSSE      LGT RAIN  61  58  90 SE7       29.97F FOG
SPARTA         RAIN      58  57  94 E9        30.02F
VIROQUA        CLOUDY    57  57 100 E15       30.00F
BOSCOBEL       RAIN      61  57  87 VRB7      29.99F FOG
PRAIRIE DU CHI RAIN      59  56  91 E9        29.97F
PLATTEVILLE    CLOUDY    60  58  94 E18G24    29.98F
$$

WIZ056-057-062-063-064-067-068-242100-
SOUTH CENTRAL WISCONSIN

CITY           SKY/WX    TMP DP  RH WIND       PRES   REMARKS
REEDSBURG      LGT RAIN  57  56  97 E7        30.03F
BARABOO/DELLS  RAIN      58  56  92 E10       30.03F
LONE ROCK      NOT AVBL
MINERAL POINT  LGT RAIN  59  57  94 E15       30.00F
MADISON        RAIN      60  56  86 E10       30.03F FOG
MIDDLETON      CLOUDY    60  57  89 E8        30.04F
WATERTOWN      LGT RAIN  60  60 100 E9        30.05F
MONROE         RAIN      59  57  94 NE10      30.02F
JANESVILLE     RAIN      64  61  88 E8        30.02F
$$

WIZ051-052-058>065-066-070>072-242100-
SOUTHEAST WISCONSIN

CITY           SKY/WX    TMP DP  RH WIND       PRES   REMARKS
MILWAUKEE      CLOUDY    58  52  80 E8        30.08F
WAUKESHA       CLOUDY    61  52  72 E12       30.08F
MILWAUKEE/TIMM NOT AVBL
RACINE         CLOUDY    57  49  74 E12       30.09F
BURLINGTON     CLOUDY    64  51  62 E10       30.05F
KENOSHA        CLOUDY    60  50  69 E13       30.07F
FOND DU LAC    LGT RAIN  62  56  80 SE6       30.08F
SHEBOYGAN      LGT RAIN  61  56  83 SE6       30.11F
WEST BEND      LGT RAIN  61  55  82 E8        30.09F
JUNEAU         LGT RAIN  60  56  88 E7        30.09F
$$

LSZ147-162-242100-
LAKE SUPERIOR

STATION/POSITION TIME  TEMP    WIND        PRES    WAVE
                       AIR SEA DIR/SP/G            HT/PER
                 (UTC) (F)     (DEG/KT/KT) (MB)    (FT/S)
W MID LAKE BUOY  1850   50 37  210/  6/  6   N/A     0
DEVILS ISLAND    1900   67      60/  1/  2   N/A
PORT WING        1900   52     360/  3/  5   N/A
SAXON HARBOR     1900   56        CALM       N/A
$$

LMZ867-665-643>646-242100-
LAKE MICHIGAN

STATION/POSITION TIME  TEMP    WIND        PRES    WAVE
                       AIR SEA DIR/SP/G            HT/PER
                 (UTC) (F)     (DEG/KT/KT) (MB)    (FT/S)
CHAMBERS ISLAND  1900   67     160/  5/ 11   N/A
N MID LAKE BUOY  1850   41 36  200/ 10/ 12   N/A     1
NORTHPORT PIER   1900   57     140/  9/ 19   N/A
SISTER BAY       1947   67     170/ 11/ 12   N/A
KEWAUNEE LAKESHO 1900   62     200/ 14/ 18   N/A
SHEBOYGAN LAKESH 1900   50     130/  2/  3   N/A
PORT WASHINGTON  1940   52      40/  5/ 15   N/A
ATWATER BUOY     1900   50 46  310/  6/  8   N/A
MILWAUKEE LAKESH 1900   57      20/  8/  9   N/A
S MID LAKE BUOY  1850   44 38   60/  8/ 10   N/A     0
$$

TC  - TEMPERATURE IN CELSIUS
VSB - VISIBILITY IN STATUTE MILES
WCI - WIND CHILL INDEX
HX  - HEAT INDEX



USA.gov is the U.S. government's official web portal to all federal, state and local government web resources and services.